When you browse on this site, cookies collect data to enhance your experience and personalize the content and advertising you see.
Visit our Privacy Policy to learn more. By continuing to use the site, you agree to this use of cookies and data.
  • Em Portugal
  • Lista de países
  • Para 7 dias
  • Temperatura da água
  • Mapas de satélite
  • Mapa do tempo
  • Widgets de tempo
  • user-avatar
    Iniciar Sessão

    Previsão horária em Konyshevo

    Hoje, 21 Abril, Domingo

    Tempo Temperatura Precipitação Vento Pressão Humidade
    00:00 +4°C° 0.2 mm 3 m/s 760 mmHg 70%
    01:00 +4°C° 0.2 mm 3 m/s 760 mmHg 73%
    02:00 +4°C° 0 mm 2 m/s 760 mmHg 83%
    03:00 +3°C° 0 mm 2 m/s 760 mmHg 82%
    04:00 +3°C° 0 mm 2 m/s 760 mmHg 82%
    05:00 +2°C° 0 mm 3 m/s 760 mmHg 81%
    06:00 +3°C° 0 mm 3 m/s 760 mmHg 77%
    07:00 +4°C° 0 mm 3 m/s 760 mmHg 72%
    08:00 +7°C° 0 mm 3 m/s 761 mmHg 66%
    09:00 +8°C° 0 mm 3 m/s 761 mmHg 59%
    10:00 +10°C° 0 mm 3 m/s 761 mmHg 52%
    11:00 +11°C° 0 mm 3 m/s 761 mmHg 45%
    12:00 +12°C° 0 mm 3 m/s 761 mmHg 42%
    13:00 +13°C° 0 mm 3 m/s 761 mmHg 39%
    14:00 +14°C° 0 mm 3 m/s 760 mmHg 36%
    15:00 +15°C° 0 mm 2 m/s 760 mmHg 37%
    16:00 +15°C° 0 mm 2 m/s 760 mmHg 38%
    17:00 +15°C° 0 mm 2 m/s 760 mmHg 38%
    18:00 +13°C° 0 mm 2 m/s 760 mmHg 46%
    19:00 +10°C° 0 mm 2 m/s 760 mmHg 53%
    20:00 +9°C° 0 mm 1 m/s 760 mmHg 60%
    21:00 +9°C° 0 mm 1 m/s 761 mmHg 63%
    22:00 +8°C° 0 mm 1 m/s 761 mmHg 65%
    23:00 +7°C° 0 mm 1 m/s 761 mmHg 67%

    Amanhã, 22 Abril, Segunda-feira

    Tempo Temperatura Precipitação Vento Pressão Humidade
    00:00 +7°C° 0 mm 1 m/s 761 mmHg 69%
    01:00 +7°C° 0 mm 1 m/s 762 mmHg 72%
    02:00 +6°C° 0 mm 1 m/s 762 mmHg 74%
    03:00 +6°C° 0 mm 1 m/s 762 mmHg 75%
    04:00 +6°C° 0 mm 1 m/s 762 mmHg 77%
    05:00 +6°C° 0 mm 1 m/s 762 mmHg 79%
    06:00 +8°C° 0 mm 1 m/s 762 mmHg 71%
    07:00 +10°C° 0 mm 1 m/s 762 mmHg 64%
    08:00 +13°C° 0 mm 1 m/s 763 mmHg 56%
    09:00 +14°C° 0 mm 1 m/s 763 mmHg 50%
    10:00 +16°C° 0 mm 2 m/s 763 mmHg 43%
    11:00 +18°C° 0 mm 2 m/s 763 mmHg 37%
    12:00 +18°C° 0 mm 2 m/s 763 mmHg 35%
    13:00 +19°C° 0 mm 2 m/s 763 mmHg 33%
    14:00 +19°C° 0 mm 2 m/s 762 mmHg 32%
    15:00 +19°C° 0 mm 2 m/s 762 mmHg 33%
    16:00 +18°C° 0 mm 2 m/s 762 mmHg 34%
    17:00 +18°C° 0 mm 2 m/s 762 mmHg 35%
    18:00 +16°C° 0 mm 2 m/s 762 mmHg 42%
    19:00 +14°C° 0 mm 2 m/s 762 mmHg 49%
    20:00 +12°C° 0 mm 1 m/s 763 mmHg 56%
    21:00 +11°C° 0 mm 1 m/s 763 mmHg 59%
    22:00 +10°C° 0 mm 2 m/s 763 mmHg 61%
    23:00 +9°C° 0 mm 2 m/s 763 mmHg 63%

    Depois de amanhã, 23 Abril, Terça-feira

    Tempo Temperatura Precipitação Vento Pressão Humidade
    00:00 +9°C° 0 mm 2 m/s 764 mmHg 64%
    01:00 +8°C° 0 mm 2 m/s 764 mmHg 65%
    02:00 +9°C° 0 mm 1 m/s 764 mmHg 66%
    03:00 +8°C° 0 mm 1 m/s 764 mmHg 67%
    04:00 +8°C° 0 mm 1 m/s 764 mmHg 68%
    05:00 +8°C° 0 mm 1 m/s 764 mmHg 69%
    06:00 +9°C° 0 mm 1 m/s 765 mmHg 63%
    07:00 +11°C° 0 mm 1 m/s 765 mmHg 57%
    08:00 +13°C° 0 mm 1 m/s 765 mmHg 51%
    09:00 +15°C° 0 mm 2 m/s 765 mmHg 45%
    10:00 +16°C° 0 mm 2 m/s 765 mmHg 39%
    11:00 +18°C° 0 mm 2 m/s 765 mmHg 34%
    12:00 +18°C° 0 mm 2 m/s 765 mmHg 32%
    13:00 +19°C° 0 mm 2 m/s 764 mmHg 31%
    14:00 +19°C° 0 mm 2 m/s 764 mmHg 30%
    15:00 +19°C° 0 mm 2 m/s 764 mmHg 31%
    16:00 +20°C° 0 mm 1 m/s 764 mmHg 32%
    17:00 +20°C° 0 mm 1 m/s 763 mmHg 33%
    18:00 +18°C° 0 mm 1 m/s 763 mmHg 39%
    19:00 +15°C° 0 mm 1 m/s 763 mmHg 44%
    20:00 +12°C° 0 mm 0 m/s 763 mmHg 50%
    21:00 +11°C° 0 mm 0 m/s 764 mmHg 52%
    22:00 +10°C° 0 mm 0 m/s 764 mmHg 54%
    23:00 +10°C° 0 mm 0 m/s 764 mmHg 56%

    24 Abril, Quarta-feira

    Tempo Temperatura Precipitação Vento Pressão Humidade
    00:00 +10°C° 0 mm 1 m/s 764 mmHg 58%
    01:00 +10°C° 0 mm 1 m/s 764 mmHg 59%
    02:00 +9°C° 0 mm 1 m/s 764 mmHg 61%
    03:00 +9°C° 0 mm 1 m/s 764 mmHg 63%
    04:00 +7°C° 0 mm 0 m/s 765 mmHg 65%
    05:00 +7°C° 0 mm 0 m/s 765 mmHg 66%
    06:00 +9°C° 0 mm 0 m/s 765 mmHg 60%
    07:00 +12°C° 0 mm 0 m/s 765 mmHg 54%
    08:00 +14°C° 0 mm 0 m/s 765 mmHg 48%
    09:00 +18°C° 0 mm 1 m/s 765 mmHg 42%
    10:00 +19°C° 0 mm 1 m/s 764 mmHg 37%
    11:00 +21°C° 0 mm 1 m/s 764 mmHg 32%
    12:00 +21°C° 0 mm 1 m/s 764 mmHg 31%
    13:00 +21°C° 0 mm 2 m/s 764 mmHg 30%
    14:00 +21°C° 0 mm 2 m/s 763 mmHg 29%
    15:00 +21°C° 0 mm 2 m/s 763 mmHg 31%
    16:00 +20°C° 0 mm 2 m/s 763 mmHg 32%
    17:00 +20°C° 0 mm 2 m/s 762 mmHg 33%
    18:00 +18°C° 0 mm 2 m/s 762 mmHg 40%
    19:00 +16°C° 0 mm 2 m/s 762 mmHg 47%
    20:00 +14°C° 0 mm 1 m/s 762 mmHg 54%
    21:00 +13°C° 0 mm 1 m/s 762 mmHg 57%
    22:00 +12°C° 0 mm 1 m/s 762 mmHg 60%
    23:00 +12°C° 0 mm 1 m/s 762 mmHg 63%

    25 Abril, Quinta-feira

    Tempo Temperatura Precipitação Vento Pressão Humidade
    00:00 +11°C° 0 mm 1 m/s 762 mmHg 64%
    01:00 +11°C° 0 mm 1 m/s 762 mmHg 66%
    02:00 +10°C° 0 mm 1 m/s 762 mmHg 67%
    03:00 +9°C° 0 mm 2 m/s 762 mmHg 69%
    04:00 +9°C° 0 mm 2 m/s 762 mmHg 70%
    05:00 +8°C° 0 mm 2 m/s 762 mmHg 71%
    06:00 +10°C° 0 mm 2 m/s 762 mmHg 65%
    07:00 +13°C° 0 mm 2 m/s 762 mmHg 58%
    08:00 +14°C° 0 mm 3 m/s 762 mmHg 52%
    09:00 +17°C° 0 mm 3 m/s 761 mmHg 47%
    10:00 +18°C° 0 mm 4 m/s 761 mmHg 42%
    11:00 +20°C° 0 mm 4 m/s 761 mmHg 37%
    12:00 +20°C° 0 mm 4 m/s 760 mmHg 35%
    13:00 +21°C° 0 mm 4 m/s 760 mmHg 34%
    14:00 +22°C° 0 mm 4 m/s 760 mmHg 32%
    15:00 +21°C° 0 mm 4 m/s 759 mmHg 36%
    16:00 +20°C° 0 mm 3 m/s 759 mmHg 39%
    17:00 +20°C° 0 mm 2 m/s 758 mmHg 43%
    18:00 +18°C° 0 mm 2 m/s 758 mmHg 47%
    19:00 +16°C° 0 mm 2 m/s 758 mmHg 52%
    20:00 +15°C° 0 mm 2 m/s 758 mmHg 57%
    21:00 +14°C° 0 mm 2 m/s 757 mmHg 59%
    22:00 +14°C° 0 mm 2 m/s 757 mmHg 61%
    23:00 +13°C° 0 mm 2 m/s 757 mmHg 63%

    26 Abril, Sexta-feira

    Tempo Temperatura Precipitação Vento Pressão Humidade
    00:00 +13°C° 0 mm 2 m/s 757 mmHg 65%
    01:00 +12°C° 0 mm 2 m/s 757 mmHg 68%
    02:00 +12°C° 0 mm 2 m/s 756 mmHg 70%
    03:00 +10°C° 0 mm 2 m/s 756 mmHg 72%
    04:00 +10°C° 0 mm 2 m/s 756 mmHg 74%
    05:00 +10°C° 0 mm 2 m/s 755 mmHg 76%
    06:00 +11°C° 0 mm 3 m/s 755 mmHg 70%
    07:00 +13°C° 0 mm 3 m/s 755 mmHg 64%
    08:00 +16°C° 0 mm 3 m/s 755 mmHg 58%
    09:00 +18°C° 0 mm 3 m/s 754 mmHg 53%
    10:00 +19°C° 0 mm 4 m/s 754 mmHg 48%
    11:00 +21°C° 0 mm 4 m/s 753 mmHg 43%
    12:00 +22°C° 0 mm 4 m/s 753 mmHg 42%
    13:00 +22°C° 0 mm 4 m/s 752 mmHg 41%
    14:00 +23°C° 0 mm 4 m/s 752 mmHg 40%
    15:00 +24°C° 0 mm 3 m/s 752 mmHg 42%
    16:00 +22°C° 0 mm 3 m/s 751 mmHg 43%
    17:00 +22°C° 0 mm 3 m/s 751 mmHg 44%
    18:00 +20°C° 0 mm 2 m/s 750 mmHg 51%
    19:00 +18°C° 0 mm 2 m/s 750 mmHg 58%
    20:00 +16°C° 0 mm 1 m/s 750 mmHg 66%
    21:00 +16°C° 0 mm 1 m/s 750 mmHg 69%
    22:00 +15°C° 0 mm 1 m/s 750 mmHg 71%
    23:00 +14°C° 0 mm 1 m/s 749 mmHg 74%
    Mostrar mais